Location: Zilina
(0.0000°N, 18.7333°E)
Time: 08:59:14
(UTC+02:00)

Daily predictions for brighter satellites

Satellite Brightness Start Highest point End
(mag) Time Altitude Azimuth Time Altitude Azimuth Time Altitude Azimuth
USA 81 4.2 18:58:15 10° N 19:03:30 86° W 19:08:47 10° S
Cosmos 724 4.3 18:58:49 10° SSW 19:04:40 87° ESE 19:10:27 10° NNE
Stardust Del rocket 3.0 19:01:16 10° WNW 19:06:11 81° NNE 19:08:58 10° ESE
SMAP 4.3 19:02:01 10° S 19:06:28 46° WSW 19:10:54 10° NNW
Meteor 1-27 Rocket 4.2 19:01:16 10° SSE 19:06:37 39° E 19:11:50 10° NNE
ARIANE 5 R/B 4.3 19:05:06 10° W 19:09:18 87° S 19:45:12 10° E
ARIANE 5 R/B 4.3 19:05:06 10° W 19:09:19 87° S 19:45:11 10° E
GPS 2-05 Rocket1 4.0 19:10:26 10° SSW 19:13:01 22° SE 19:15:40 10° E
Cosmos 1437 Rocket 4.2 19:14:29 10° NNW 19:18:21 43° W 19:22:13 10° SSW
FENGYUN 3A 3.7 19:13:43 10° SSE 19:19:06 88° ENE 19:24:26 10° NNW
Cosmos 371 Rocket 3.6 19:16:20 10° S 19:20:56 44° ESE 19:25:30 10° NNE
Abrixas rocket 3.0 19:18:17 10° SW 19:21:25 54° NW 19:24:33 10° NNE
ARIANE 5 R/B 3.3 19:18:39 10° WSW 19:22:26 45° S 19:26:48 12° E
USA 238 DEB 3.7 19:17:00 10° SSW 19:23:53 86° ESE 19:30:44 10° NNE
USA 238 3.7 19:17:08 10° SSW 19:24:00 85° ESE 19:30:50 10° NNE
Thor Agena Rocket 4.3 19:21:51 10° NE 19:26:19 29° ESE 19:30:45 10° SSE
Skynet4D Del rocket 4.0 19:19:34 10° WSW 19:26:40 77° SSE 19:32:46 10° ENE
SPOT 3 Rocket 4.2 19:27:18 10° SE 19:31:56 34° ENE 19:36:32 10° NNE
Cosmos 2123 Rocket 4.0 19:28:12 10° N 19:34:12 56° E 19:40:14 10° SSE
Cosmos 332 Rocket 3.7 19:29:42 10° S 19:34:28 72° ESE 19:39:13 10° NNE
COSMOS 2487 4.2 19:38:13 16° ENE 19:38:13 16° ENE 19:39:23 10° NE
Ariane Rocket 4.3 19:33:24 10° S 19:38:07 41° WSW 19:42:49 10° NNW
Cosmos 1943 Rocket 4.5 19:34:38 10° NW 19:39:00 23° WSW 19:43:25 10° SSW
YAOGAN 1 3.6 19:35:31 10° S 19:39:40 46° WSW 19:43:48 10° NNW
MOS 1 4.3 19:34:26 10° SSE 19:40:03 64° ENE 19:45:38 10° N
IRS-1A Rocket 4.3 19:34:35 10° S 19:40:08 80° WSW 19:45:36 10° NNW
Delta 198 3.7 19:36:53 10° NW 19:40:38 42° NNE 19:42:30 23° E
Iridium 96 4.4 19:44:01 35° E 19:44:07 35° E 19:46:49 10° NNE
FREGAT/IRIS 4.0 19:45:11 22° ENE 19:45:11 22° ENE 19:47:02 10° NNE
NOAA 12 4.5 19:44:57 10° S 19:50:08 65° WSW 19:55:18 10° NNW
Cosmos 1802 Rocket 4.2 19:46:30 10° SSE 19:52:23 46° E 19:58:20 10° NNE
Sich 1 Rocket 3.6 19:54:00 10° N 19:58:17 54° E 20:00:03 32° SSE
NOSS 3-2 (A) 3.2 19:53:01 10° SSW 19:58:45 89° WNW 20:04:28 10° NNE
DNEPR-1 R/B 3.9 19:57:14 10° SSW 20:01:39 64° WNW 20:05:44 10° NNE
NOSS 3-2 (C) 3.2 19:56:13 10° SSW 20:01:52 60° ESE 20:07:30 10° NE
BREEZE-M DEB (TANK) 3.5 20:01:54 10° N 20:03:26 28° NNE 20:03:26 28° NNE
Cosmos 1908 Rocket 3.8 20:01:44 10° N 20:06:07 69° W 20:09:56 13° S
Lacrosse 4 Rocket 3.2 20:03:05 10° NNE 20:05:14 19° NE 20:05:14 19° NE
Spelda 30 4.0 20:07:31 10° W 20:11:02 80° N 20:18:11 24° E
Ariane V96 H10-3 2.9 20:04:45 10° W 20:12:13 58° SSW 20:12:32 55° SSE
Aureole 3 3.2 20:08:21 10° N 20:12:26 76° W 20:13:14 51° SSW
Cosmos 389 Rocket 4.3 20:10:12 10° NNW 20:13:27 31° W 20:16:38 11° SSW
FengYun 1-2 T 4.4 20:10:57 14° S 20:15:54 77° WSW 20:21:33 10° NNW
BLOCK DM-SL R/B 3.9 20:01:52 10° W 20:16:10 87° S 20:18:20 41° E
Cosmos 304 Rocket 3.6 20:23:09 67° SSE 20:23:39 74° ESE 20:28:26 10° NNE
Cosmos 1812 3.5 20:28:12 42° SW 20:29:00 50° W 20:32:43 10° N
Cosmos 1864 Rocket 4.4 20:31:36 60° ESE 20:32:07 63° E 20:38:12 10° NNE
Cosmos 1503 Rocket 4.4 20:27:13 10° NNW 20:32:19 58° WSW 20:34:15 36° SSW
Cosmos 1867 3.9 20:28:00 10° N 20:32:35 51° NE 20:32:35 51° NE
Cosmos 1271 Rocket 4.0 20:34:15 10° NNW 20:36:47 38° NNW 20:36:47 38° NNW
Timation 2 Rocket 3.7 20:32:04 10° SSW 20:38:10 76° ESE 20:44:06 10° NNE
Centaur AC-129 4.3 20:40:09 10° WNW 20:45:31 73° SSW 20:46:29 62° SSE
Envisat 3.2 20:46:19 67° W 20:46:19 67° W 20:51:17 10° NNW
ATLAS 2A CENTAUR R/B 4.0 20:41:53 10° WNW 20:51:49 30° SW 20:52:25 29° SSW
Centaur D-1A AC-35 4.4 21:01:13 10° WSW 21:21:40 41° NW 21:23:40 33° N
Centaur AC-72 4.3 21:17:19 10° W 21:23:46 53° N 21:48:35 10° ENE
